Regional Weather Roundup
Issued by NWS

Home | Current Version | Previous Version | Graphics & Text | Print | Product List | Glossary On
Versions: 1 2 3 4 5 6 7 8 9 10 11 12 13 14 15 16 17 18 19 20 21 22 23 24 25 26 27 28 29 30 31 32 33 34 35 36 37 38 39 40 41 42 43 44 45 46 47 48 49 50
000
ASUS43 KMKX 230421
RWRWI

WISCONSIN REGIONAL WEATHER ROUNDUP
NATIONAL WEATHER SERVICE MILWAUKEE/SULLIVAN WI
1100 PM CDT TUE JUL 22 2014

NOTE: "FAIR" INDICATES FEW OR NO CLOUDS BELOW 12,000 FEET WITH NO
SIGNIFICANT WEATHER AND/OR OBSTRUCTIONS TO VISIBILITY.

WIZ001-002-006>008-014>016-023>028-230500-
NORTHWEST WISCONSIN

CITY           SKY/WX    TMP DP  RH WIND       PRES   REMARKS
SUPERIOR ARPT  CLEAR     56  55  95 CALM      30.14S
ASHLAND        CLEAR     54  54 100 CALM      30.14S
HAYWARD        CLEAR     60  58  92 CALM      30.15S
SIREN          PTCLDY    63  58  84 CALM      30.15R
RICE LAKE      CLEAR     65  59  81 N3        30.15S
LADYSMITH      CLEAR     65  60  83 NE9       30.15S
EAU CLAIRE     CLEAR     69  61  75 N5        30.10R
MENOMONIE      CLEAR     69  61  76 NW6       30.11S
NEW RICHMOND   PTCLDY    67  57  72 N6        30.14R
OSCEOLA        PTCLDY    68  58  68 N7        30.17R
$$

WIZ003>005-009-010-017-018-230500-
NORTH CENTRAL WISCONSIN

CITY           SKY/WX    TMP DP  RH WIND       PRES   REMARKS
WOODRUFF       CLEAR     57  53  87 CALM      30.14S
RHINELANDER    CLEAR     59  56  89 N3        30.14S
EAGLE RIVER    CLEAR     55  55 100 CALM      30.13S FOG
LAND O LAKES   CLEAR     53  52  97 CALM      30.15R FOG
PHILLIPS       CLEAR     60  57  88 N3        30.14S
TOMAHAWK       CLEAR     59  56  90 CALM      30.14R
MEDFORD        CLEAR     62  57  85 NE6       30.13R
MERRILL        CLEAR     60  58  94 N5        30.12S
$$

WIZ029-030-035-036-043>047-230500-
CENTRAL WISCONSIN

CITY           SKY/WX    TMP DP  RH WIND       PRES   REMARKS
WAUSAU         CLEAR     66  58  75 N7        30.09S
MOSINEE        CLEAR     64  59  82 N9        30.11S
MARSHFIELD     CLEAR     67  57  70 N10       30.10S
STEVENS POINT  CLEAR     64  57  78 N7        30.10R
WAUPACA        CLEAR     70  59  68 N9G16     30.06R
WAUTOMA        CLEAR     71  60  68 N10       30.07R
WISC RAPIDS    CLEAR     68  59  73 N13       30.09S
CAMP DOUGLAS   PTCLDY    70  63  78 N7        30.08R
$$

WIZ011>013-019>022-031-037>040-048>050-230500-
NORTHEAST WISCONSIN

CITY           SKY/WX    TMP DP  RH WIND       PRES   REMARKS
ANTIGO         CLEAR     60  57  92 N8        30.12R
STURGEON BAY   CLEAR     64  54  68 N17       30.06R
GREEN BAY      CLEAR     67  58  72 N10       30.05R
MANITOWOC      CLOUDY    70  61  73 N12       30.04R
APPLETON       PTCLDY    68  55  64 N15G23    30.06R
CLINTONVILLE   CLEAR     68  55  64 N8        30.07R
OSHKOSH        CLEAR     70  59  68 N15G24    30.05R
$$

WIZ032>034-041-042-053>061-230500-
SOUTHWEST WISCONSIN

CITY           SKY/WX    TMP DP  RH WIND       PRES   REMARKS
LA CROSSE      PTCLDY    72  63  73 N8        30.06S
SPARTA         MOCLDY    70  61  71 N5        30.08R
VIROQUA        FAIR      69  63  82 N6        30.08R
BOSCOBEL       CLEAR     75  62  64 N5        30.05R
PRAIRIE DU CHI CLEAR     76  62  60 N3        30.05R
PLATTEVILLE    FAIR      74  67  79 N8        30.05R
$$

WIZ056-057-062-063-064-067-068-230500-
SOUTH CENTRAL WISCONSIN

CITY           SKY/WX    TMP DP  RH WIND       PRES   REMARKS
BARABOO/DELLS  CLEAR     73  60  63 N9G17     30.06R
LONE ROCK      CLEAR     79  65  62 N7        30.04R HX  81
WATERTOWN      CLEAR     75  64  67 N15G22    30.01R
MADISON        PTCLDY    76  64  66 N8        30.02S
MIDDLETON      FAIR      75  62  64 N8        30.04R
MONROE         CLEAR     75  66  73 N14G21    30.02R
JANESVILLE     CLEAR     79  64  61 N12G17    30.00R HX  81
$$

WIZ051-052-058>065-066-070>072-230500-
SOUTHEAST WISCONSIN

CITY           SKY/WX    TMP DP  RH WIND       PRES   REMARKS
MILWAUKEE      CLOUDY    72  61  68 NE14      30.00R
WAUKESHA       PTCLDY    73  63  68 N7        30.03R
MILWAUKEE/TIMM MOCLDY    77  61  57 NE8       30.01R
RACINE         CLOUDY    75  63  66 N15G28    30.02R
BURLINGTON     PTCLDY    76  66  70 N13G22    29.99R
KENOSHA        CLOUDY    81  67  62 N14G23    29.99R HX  83
FOND DU LAC    PTCLDY    73  60  63 N15G24    30.05R
SHEBOYGAN      CLOUDY    74  63  68 N15G23    30.01R
WEST BEND      PTCLDY    73  61  64 N13G18    30.02R
JUNEAU         CLEAR     73  60  65 N9        30.04R
$$

LSZ147-162-230500-
LAKE SUPERIOR

STATION/POSITION TIME  TEMP    WIND        PRES    WAVE
                       AIR SEA DIR/SP/G            HT/PER
                 (UTC) (F)     (DEG/KT/KT) (MB)    (FT/S)
W MID LAKE BUOY  0350   46 40  230/  6/  8 1020.1R   1/ 3
PORT WING        0300   63     160/  3/  3 1020.3R
SAXON HARBOR     0340             CALM     1020.0S
$$

LMZ867-665-643>646-230500-
LAKE MICHIGAN

STATION/POSITION TIME  TEMP    WIND        PRES    WAVE
                       AIR SEA DIR/SP/G            HT/PER
                 (UTC) (F)     (DEG/KT/KT) (MB)    (FT/S)
N MID LAKE BUOY  0350   59 54  340/ 16/ 19 1016.3R   4/ 6
NORTHPORT PIER   0304   66     350/ 20/ 25 1016.6R
KEWAUNEE LAKESHO 0300   70     350/  9/ 17 1017.5R
SHEBOYGAN LAKESH 0400           40/ 21/ 22 1016.9R
PORT WASHINGTON  0300           30/ 11/ 17 1015.6R
ATWATER BUOY     0400   54     350/ 10     1016.8R
MILWAUKEE LAKESH 0400           20/ 17/ 21   N/A
S MID LAKE BUOY  0350   71 66  340/ 17/ 21 1013.9R   1/ 4
KENOSHA   LAKESH 0400   68      10/ 22/ 27   N/A
$$

TC  - TEMPERATURE IN CELSIUS
VSB - VISIBILITY IN STATUTE MILES
WCI - WIND CHILL INDEX
HX  - HEAT INDEX



USA.gov is the U.S. government's official web portal to all federal, state and local government web resources and services.